This is the latest recevied weather packets stored in our database for station/object K4TH. If no packets are shown the sender has not sent any weather packets the latest 1 day(s).
| Time | Temp. | Humidity | Pressure | Rain* | Wind** | Luminosity | Snow |
|---|---|---|---|---|---|---|---|
| 1778006980 | 24.44° C | 56% | 1013.8 hPa | 0 mm | 0.89 m/s, 111° | 77 W/m² | - |
| 1778006677 | 24.44° C | 56% | 1013.5 hPa | 0 mm | 1.34 m/s, 180° | 44 W/m² | - |
| 1778006373 | 24.44° C | 56% | 1013.6 hPa | 0 mm | 0.89 m/s, 87° | 69 W/m² | - |
| 1778006070 | 23.89° C | 56% | 1013.9 hPa | 0 mm | 1.34 m/s, 168° | 79 W/m² | - |
| 1778005767 | 23.89° C | 57% | 1013.8 hPa | 0 mm | 0.89 m/s, 70° | 77 W/m² | - |
| 1778005464 | 23.89° C | 58% | 1014 hPa | 0 mm | 0.89 m/s, 76° | 71 W/m² | - |
| 1778005160 | 24.44° C | 56% | 1014 hPa | 0 mm | 0.89 m/s, 88° | 68 W/m² | - |
| 1778004858 | 24.44° C | 56% | 1013.9 hPa | 0 mm | 0.89 m/s, 306° | 61 W/m² | - |
| 1778004554 | 24.44° C | 54% | 1013.9 hPa | 0 mm | 0.45 m/s, 326° | 62 W/m² | - |
| 1778004251 | 24.44° C | 55% | 1014.1 hPa | 0 mm | 1.34 m/s, 197° | 62 W/m² | - |
| 1778003948 | 24.44° C | 53% | 1013.8 hPa | 0 mm | 0.89 m/s, 283° | 45 W/m² | - |
| 1778003644 | 24.44° C | 55% | 1014.1 hPa | 0 mm | 0.89 m/s, 180° | 36 W/m² | - |
| 1778003340 | 23.89° C | 54% | 1014 hPa | 0 mm | 1.79 m/s, 187° | 38 W/m² | - |
| 1778003038 | 24.44° C | 53% | 1014.1 hPa | 0 mm | 0.45 m/s, 42° | 36 W/m² | - |
| 1778002734 | 23.89° C | 54% | 1014.3 hPa | 0 mm | 2.68 m/s, 162° | 37 W/m² | - |
| 1778002430 | 24.44° C | 55% | 1014.3 hPa | 0 mm | 0.89 m/s, 102° | 37 W/m² | - |
| 1778002127 | 23.89° C | 57% | 1014.5 hPa | 0 mm | 0.89 m/s, 331° | 39 W/m² | - |
| 1778001825 | 23.89° C | 53% | 1014.6 hPa | 0 mm | 2.24 m/s, 183° | 40 W/m² | - |
| 1778001524 | 23.89° C | 54% | 1014.5 hPa | 0 mm | 0.45 m/s, 343° | 34 W/m² | - |
| 1778001222 | 23.89° C | 55% | 1014.9 hPa | 0 mm | 1.34 m/s, 169° | 28 W/m² | - |
| 1778000918 | 24.44° C | 56% | 1014.8 hPa | 0 mm | 1.79 m/s, 186° | 27 W/m² | - |
| 1778000615 | 24.44° C | 53% | 1014.6 hPa | 0 mm | 0.89 m/s, 335° | 27 W/m² | - |
| 1778000310 | 23.89° C | 52% | 1014.9 hPa | 0 mm | 0.89 m/s, 97° | 28 W/m² | - |
| 1778000006 | 24.44° C | 54% | 1014.6 hPa | 0 mm | 1.34 m/s, 220° | 32 W/m² | - |
| 1777999702 | 24.44° C | 54% | 1014.8 hPa | 0 mm | 0.89 m/s, 173° | 34 W/m² | - |
* Rain latest hour (hover to see other rain measurements)
** Current wind speed in m/s (hover to see current wind gust speed)